Saint Bonnet de Bellac- Haute Vienne - France
Donnes mto: lundi, 28/11/2011
Date Horaire Temp. E. Hum. E. P.atmo. Pluie Vent Direction Direction Ensoleilleme Solaire P. de rose Temp au vent Rafales
28/11/2011 00:00 8,8 C 94 % 1026,6 hPa 0,0 mm 0,0 km/h (0 Bft) NO 315 0 min 0 W/m 7,9 C 8,8 C 0,0 km/h (0 Bft)
28/11/2011 00:05 8,8 C 94 % 1026,6 hPa 0,0 mm 0,0 km/h (0 Bft) NO 315 0 min 0 W/m 7,9 C 8,8 C 0,0 km/h (0 Bft)
28/11/2011 00:10 8,8 C 94 % 1026,6 hPa 0,0 mm 0,0 km/h (0 Bft) NO 315 0 min 0 W/m 7,9 C 8,8 C 0,0 km/h (0 Bft)
28/11/2011 00:15 8,8 C 94 % 1026,6 hPa 0,0 mm 0,0 km/h (0 Bft) NO 315 0 min 0 W/m 7,9 C 8,8 C 0,0 km/h (0 Bft)
28/11/2011 00:20 8,8 C 94 % 1026,6 hPa 0,0 mm 0,0 km/h (0 Bft) NO 315 0 min 0 W/m 7,9 C 8,8 C 0,0 km/h (0 Bft)
28/11/2011 00:25 8,8 C 94 % 1026,5 hPa 0,0 mm 0,0 km/h (0 Bft) NO 315 0 min 0 W/m 7,9 C 8,8 C 0,0 km/h (0 Bft)
28/11/2011 00:30 8,8 C 94 % 1026,4 hPa 0,0 mm 0,0 km/h (0 Bft) NO 315 0 min 0 W/m 7,9 C 8,8 C 0,0 km/h (0 Bft)
28/11/2011 00:35 8,8 C 94 % 1026,4 hPa 0,0 mm 0,0 km/h (0 Bft) NO 315 0 min 0 W/m 7,9 C 8,8 C 0,0 km/h (0 Bft)
28/11/2011 00:40 8,8 C 94 % 1026,3 hPa 0,0 mm 0,0 km/h (0 Bft) NO 315 0 min 0 W/m 7,9 C 8,8 C 0,0 km/h (0 Bft)
28/11/2011 00:45 8,8 C 94 % 1026,3 hPa 0,0 mm 0,0 km/h (0 Bft) NO 315 0 min 0 W/m 7,9 C 8,8 C 0,0 km/h (0 Bft)
28/11/2011 00:50 8,8 C 94 % 1026,3 hPa 0,0 mm 0,0 km/h (0 Bft) NO 315 0 min 0 W/m 7,9 C 8,8 C 0,0 km/h (0 Bft)
28/11/2011 00:55 8,8 C 94 % 1026,3 hPa 0,0 mm 0,0 km/h (0 Bft) NO 315 0 min 0 W/m 7,9 C 8,8 C 0,0 km/h (0 Bft)
28/11/2011 01:00 8,8 C 94 % 1026,3 hPa 0,0 mm 0,0 km/h (0 Bft) NO 315 0 min 0 W/m 7,9 C 8,8 C 0,0 km/h (0 Bft)
28/11/2011 01:05 8,8 C 94 % 1026,2 hPa 0,0 mm 0,0 km/h (0 Bft) NO 315 0 min 0 W/m 7,9 C 8,8 C 0,0 km/h (0 Bft)
28/11/2011 01:10 8,8 C 94 % 1026,1 hPa 0,0 mm 0,0 km/h (0 Bft) NO 315 0 min 0 W/m 7,9 C 8,8 C 0,0 km/h (0 Bft)
28/11/2011 01:15 8,8 C 94 % 1026,1 hPa 0,0 mm 0,0 km/h (0 Bft) NO 315 0 min 0 W/m 7,9 C 8,8 C 0,0 km/h (0 Bft)
28/11/2011 01:20 8,8 C 94 % 1026,2 hPa 0,0 mm 0,0 km/h (0 Bft) NO 315 0 min 0 W/m 7,9 C 8,8 C 0,0 km/h (0 Bft)
28/11/2011 01:25 8,8 C 94 % 1026,1 hPa 0,0 mm 0,0 km/h (0 Bft) NO 315 0 min 0 W/m 7,9 C 8,8 C 0,0 km/h (0 Bft)
28/11/2011 01:30 8,8 C 94 % 1026,1 hPa 0,0 mm 0,0 km/h (0 Bft) NO 315 0 min 0 W/m 7,9 C 8,8 C 0,0 km/h (0 Bft)
28/11/2011 01:35 8,8 C 94 % 1026,0 hPa 0,0 mm 0,0 km/h (0 Bft) NO 315 0 min 0 W/m 7,9 C 8,8 C 0,0 km/h (0 Bft)
28/11/2011 01:40 8,8 C 94 % 1026,0 hPa 0,0 mm 0,0 km/h (0 Bft) NO 315 0 min 0 W/m 7,9 C 8,8 C 0,0 km/h (0 Bft)
28/11/2011 01:45 8,8 C 94 % 1025,8 hPa 0,0 mm 0,0 km/h (0 Bft) NO 315 0 min 0 W/m 7,9 C 8,8 C 0,0 km/h (0 Bft)
28/11/2011 01:50 8,8 C 94 % 1025,8 hPa 0,0 mm 0,0 km/h (0 Bft) NO 315 0 min 0 W/m 7,9 C 8,8 C 0,0 km/h (0 Bft)
28/11/2011 01:55 8,8 C 94 % 1025,9 hPa 0,0 mm 0,0 km/h (0 Bft) NO 315 0 min 0 W/m 7,9 C 8,8 C 0,0 km/h (0 Bft)
28/11/2011 02:02 8,8 C 94 % 1025,8 hPa 0,0 mm 0,0 km/h (0 Bft) NO 315 0 min 0 W/m 7,9 C 8,8 C 0,0 km/h (0 Bft)
28/11/2011 02:05 8,8 C 94 % 1025,8 hPa 0,0 mm 0,0 km/h (0 Bft) NO 315 0 min 0 W/m 7,9 C 8,8 C 0,0 km/h (0 Bft)
28/11/2011 02:10 8,8 C 94 % 1025,8 hPa 0,0 mm 0,0 km/h (0 Bft) NO 315 0 min 0 W/m 7,9 C 8,8 C 0,0 km/h (0 Bft)
28/11/2011 02:15 8,8 C 94 % 1025,9 hPa 0,0 mm 0,0 km/h (0 Bft) NO 315 0 min 0 W/m 7,9 C 8,8 C 0,0 km/h (0 Bft)
28/11/2011 02:20 8,7 C 94 % 1025,8 hPa 0,0 mm 0,0 km/h (0 Bft) NO 315 0 min 0 W/m 7,8 C 8,7 C 0,0 km/h (0 Bft)
28/11/2011 02:25 8,7 C 94 % 1025,8 hPa 0,0 mm 0,0 km/h (0 Bft) NO 315 0 min 0 W/m 7,8 C 8,7 C 0,0 km/h (0 Bft)
28/11/2011 02:30 8,7 C 94 % 1025,7 hPa 0,0 mm 0,0 km/h (0 Bft) NO 315 0 min 0 W/m 7,8 C 8,7 C 0,0 km/h (0 Bft)
28/11/2011 02:35 8,6 C 95 % 1025,8 hPa 0,0 mm 0,0 km/h (0 Bft) NO 315 0 min 0 W/m 7,8 C 8,6 C 0,0 km/h (0 Bft)
28/11/2011 02:40 8,6 C 95 % 1025,7 hPa 0,0 mm 0,0 km/h (0 Bft) NO 315 0 min 0 W/m 7,8 C 8,6 C 0,0 km/h (0 Bft)
28/11/2011 02:45 8,6 C 95 % 1025,7 hPa 0,0 mm 0,0 km/h (0 Bft) N 360 0 min 0 W/m 7,8 C 8,6 C 0,0 km/h (0 Bft)
28/11/2011 02:50 8,6 C 95 % 1025,8 hPa 0,0 mm 0,0 km/h (0 Bft) N 360 0 min 0 W/m 7,8 C 8,6 C 3,2 km/h (1 Bft)
28/11/2011 02:55 8,6 C 95 % 1025,6 hPa 0,0 mm 1,4 km/h (1 Bft) N-NE 22 0 min 0 W/m 7,8 C 8,6 C 4,3 km/h (1 Bft)
28/11/2011 03:00 8,6 C 95 % 1025,7 hPa 0,0 mm 0,0 km/h (0 Bft) N-NE 22 0 min 0 W/m 7,8 C 8,6 C 0,0 km/h (0 Bft)
28/11/2011 03:05 8,6 C 95 % 1025,7 hPa 0,0 mm 0,0 km/h (0 Bft) N-NE 22 0 min 0 W/m 7,8 C 8,6 C 0,0 km/h (0 Bft)
28/11/2011 03:10 8,6 C 95 % 1025,7 hPa 0,0 mm 0,0 km/h (0 Bft) N-NE 22 0 min 0 W/m 7,8 C 8,6 C 3,6 km/h (1 Bft)
28/11/2011 03:15 8,6 C 95 % 1025,6 hPa 0,0 mm 0,0 km/h (0 Bft) N-NE 22 0 min 0 W/m 7,8 C 8,6 C 0,0 km/h (0 Bft)
28/11/2011 03:20 8,5 C 94 % 1025,6 hPa 0,0 mm 0,4 km/h (0 Bft) N-NE 22 0 min 0 W/m 7,6 C 8,5 C 3,6 km/h (1 Bft)
28/11/2011 03:25 8,5 C 94 % 1025,5 hPa 0,0 mm 2,2 km/h (1 Bft) NE 45 0 min 0 W/m 7,6 C 8,5 C 4,0 km/h (1 Bft)
28/11/2011 03:30 8,4 C 94 % 1025,5 hPa 0,0 mm 1,1 km/h (1 Bft) N-NE 22 0 min 0 W/m 7,5 C 8,4 C 4,3 km/h (1 Bft)
28/11/2011 03:35 8,4 C 94 % 1025,5 hPa 0,0 mm 0,0 km/h (0 Bft) N-NE 22 0 min 0 W/m 7,5 C 8,4 C 4,0 km/h (1 Bft)
28/11/2011 03:40 8,4 C 94 % 1025,5 hPa 0,0 mm 0,0 km/h (0 Bft) N-NE 22 0 min 0 W/m 7,5 C 8,4 C 4,0 km/h (1 Bft)
28/11/2011 03:45 8,3 C 95 % 1025,5 hPa 0,0 mm 0,0 km/h (0 Bft) N-NE 22 0 min 0 W/m 7,5 C 8,3 C 0,0 km/h (0 Bft)
28/11/2011 03:50 8,3 C 95 % 1025,4 hPa 0,0 mm 0,0 km/h (0 Bft) N-NE 22 0 min 0 W/m 7,5 C 8,3 C 0,0 km/h (0 Bft)
28/11/2011 03:55 8,3 C 95 % 1025,4 hPa 0,0 mm 0,0 km/h (0 Bft) N-NE 22 0 min 0 W/m 7,5 C 8,3 C 0,0 km/h (0 Bft)
28/11/2011 04:00 8,3 C 95 % 1025,3 hPa 0,0 mm 0,0 km/h (0 Bft) N-NE 22 0 min 0 W/m 7,5 C 8,3 C 0,0 km/h (0 Bft)
28/11/2011 04:05 8,3 C 95 % 1025,2 hPa 0,0 mm 0,0 km/h (0 Bft) N-NE 22 0 min 0 W/m 7,5 C 8,3 C 0,0 km/h (0 Bft)
28/11/2011 04:10 8,3 C 95 % 1025,2 hPa 0,0 mm 0,0 km/h (0 Bft) N-NE 22 0 min 0 W/m 7,5 C 8,3 C 0,0 km/h (0 Bft)
28/11/2011 04:15 8,3 C 95 % 1025,2 hPa 0,0 mm 0,0 km/h (0 Bft) N-NE 22 0 min 0 W/m 7,5 C 8,3 C 0,0 km/h (0 Bft)
28/11/2011 04:20 8,3 C 95 % 1025,1 hPa 0,0 mm 0,0 km/h (0 Bft) N-NE 22 0 min 0 W/m 7,5 C 8,3 C 0,0 km/h (0 Bft)
28/11/2011 04:25 8,3 C 95 % 1025,2 hPa 0,0 mm 0,0 km/h (0 Bft) N-NE 22 0 min 0 W/m 7,5 C 8,3 C 0,0 km/h (0 Bft)
28/11/2011 04:30 8,3 C 95 % 1025,1 hPa 0,0 mm 0,0 km/h (0 Bft) N 360 0 min 0 W/m 7,5 C 8,3 C 0,0 km/h (0 Bft)
28/11/2011 04:35 8,2 C 95 % 1025,2 hPa 0,0 mm 0,0 km/h (0 Bft) N 360 0 min 0 W/m 7,4 C 8,2 C 0,0 km/h (0 Bft)
28/11/2011 04:40 8,2 C 95 % 1025,1 hPa 0,0 mm 0,4 km/h (0 Bft) N-NE 22 0 min 0 W/m 7,4 C 8,2 C 0,4 km/h (0 Bft)
28/11/2011 04:45 8,1 C 95 % 1025,0 hPa 0,0 mm 0,0 km/h (0 Bft) N-NE 22 0 min 0 W/m 7,3 C 8,1 C 0,0 km/h (0 Bft)
28/11/2011 04:50 8,1 C 95 % 1025,0 hPa 0,0 mm 0,0 km/h (0 Bft) N-NE 22 0 min 0 W/m 7,3 C 8,1 C 0,0 km/h (0 Bft)
28/11/2011 04:55 8,1 C 95 % 1024,9 hPa 0,0 mm 0,0 km/h (0 Bft) N-NE 22 0 min 0 W/m 7,3 C 8,1 C 0,0 km/h (0 Bft)
28/11/2011 05:00 8,1 C 95 % 1024,8 hPa 0,0 mm 0,0 km/h (0 Bft) N-NE 22 0 min 0 W/m 7,3 C 8,1 C 0,0 km/h (0 Bft)
28/11/2011 05:05 8,0 C 95 % 1024,9 hPa 0,0 mm 0,0 km/h (0 Bft) N-NE 22 0 min 0 W/m 7,2 C 8,0 C 0,0 km/h (0 Bft)
28/11/2011 05:10 8,0 C 95 % 1024,8 hPa 0,0 mm 0,0 km/h (0 Bft) N-NE 22 0 min 0 W/m 7,2 C 8,0 C 0,0 km/h (0 Bft)
28/11/2011 05:15 8,0 C 95 % 1024,8 hPa 0,0 mm 0,0 km/h (0 Bft) N-NE 22 0 min 0 W/m 7,2 C 8,0 C 0,0 km/h (0 Bft)
28/11/2011 05:20 8,0 C 95 % 1024,7 hPa 0,0 mm 0,0 km/h (0 Bft) N-NE 22 0 min 0 W/m 7,2 C 8,0 C 0,0 km/h (0 Bft)
28/11/2011 05:25 8,0 C 95 % 1024,6 hPa 0,0 mm 0,0 km/h (0 Bft) N-NE 22 0 min 0 W/m 7,2 C 8,0 C 0,0 km/h (0 Bft)
28/11/2011 05:30 8,0 C 95 % 1024,5 hPa 0,0 mm 0,0 km/h (0 Bft) N-NE 22 0 min 0 W/m 7,2 C 8,0 C 0,0 km/h (0 Bft)
28/11/2011 05:35 8,0 C 95 % 1024,6 hPa 0,0 mm 0,0 km/h (0 Bft) N-NE 22 0 min 0 W/m 7,2 C 8,0 C 0,0 km/h (0 Bft)
28/11/2011 05:40 8,0 C 95 % 1024,5 hPa 0,0 mm 0,0 km/h (0 Bft) N-NE 22 0 min 0 W/m 7,2 C 8,0 C 0,0 km/h (0 Bft)
28/11/2011 05:45 8,0 C 95 % 1024,5 hPa 0,0 mm 0,0 km/h (0 Bft) N-NE 22 0 min 0 W/m 7,2 C 8,0 C 0,0 km/h (0 Bft)
28/11/2011 05:50 8,0 C 95 % 1024,4 hPa 0,0 mm 0,0 km/h (0 Bft) N-NE 22 0 min 0 W/m 7,2 C 8,0 C 0,0 km/h (0 Bft)
28/11/2011 05:55 8,0 C 95 % 1024,5 hPa 0,0 mm 0,0 km/h (0 Bft) N-NE 22 0 min 0 W/m 7,2 C 8,0 C 0,0 km/h (0 Bft)
28/11/2011 06:00 8,0 C 95 % 1024,3 hPa 0,0 mm 0,0 km/h (0 Bft) N-NE 22 0 min 0 W/m 7,2 C 8,0 C 0,0 km/h (0 Bft)
28/11/2011 06:05 8,0 C 95 % 1024,4 hPa 0,0 mm 0,0 km/h (0 Bft) N-NE 22 0 min 0 W/m 7,2 C 8,0 C 0,0 km/h (0 Bft)
28/11/2011 06:10 8,0 C 95 % 1024,4 hPa 0,0 mm 0,0 km/h (0 Bft) N-NE 22 0 min 0 W/m 7,2 C 8,0 C 0,0 km/h (0 Bft)
28/11/2011 06:15 8,0 C 95 % 1024,3 hPa 0,0 mm 0,0 km/h (0 Bft) N-NE 22 0 min 0 W/m 7,2 C 8,0 C 0,0 km/h (0 Bft)
28/11/2011 06:20 8,0 C 95 % 1024,3 hPa 0,0 mm 0,0 km/h (0 Bft) N-NE 22 0 min 0 W/m 7,2 C 8,0 C 0,0 km/h (0 Bft)
28/11/2011 06:25 8,0 C 95 % 1024,4 hPa 0,0 mm 0,0 km/h (0 Bft) N-NE 22 0 min 0 W/m 7,2 C 8,0 C 0,0 km/h (0 Bft)
28/11/2011 06:30 8,0 C 95 % 1024,4 hPa 0,0 mm 0,0 km/h (0 Bft) N-NE 22 0 min 0 W/m 7,2 C 8,0 C 0,0 km/h (0 Bft)
28/11/2011 06:35 8,0 C 95 % 1024,4 hPa 0,0 mm 0,0 km/h (0 Bft) N-NE 22 0 min 0 W/m 7,2 C 8,0 C 0,0 km/h (0 Bft)
28/11/2011 06:40 8,0 C 95 % 1024,2 hPa 0,0 mm 0,0 km/h (0 Bft) N-NE 22 0 min 0 W/m 7,2 C 8,0 C 0,0 km/h (0 Bft)
28/11/2011 06:45 8,0 C 95 % 1024,3 hPa 0,0 mm 0,0 km/h (0 Bft) N-NE 22 0 min 0 W/m 7,2 C 8,0 C 0,0 km/h (0 Bft)
28/11/2011 06:50 8,0 C 95 % 1024,3 hPa 0,0 mm 0,0 km/h (0 Bft) N-NE 22 0 min 0 W/m 7,2 C 8,0 C 0,0 km/h (0 Bft)
28/11/2011 06:55 8,0 C 95 % 1024,2 hPa 0,0 mm 0,0 km/h (0 Bft) N-NE 22 0 min 0 W/m 7,2 C 8,0 C 0,0 km/h (0 Bft)
28/11/2011 07:00 7,9 C 95 % 1024,3 hPa 0,0 mm 0,0 km/h (0 Bft) N-NE 22 0 min 0 W/m 7,1 C 7,9 C 0,0 km/h (0 Bft)
28/11/2011 07:05 7,9 C 95 % 1024,1 hPa 0,0 mm 0,0 km/h (0 Bft) N-NE 22 0 min 0 W/m 7,1 C 7,9 C 0,0 km/h (0 Bft)
28/11/2011 07:10 7,9 C 95 % 1024,2 hPa 0,0 mm 0,0 km/h (0 Bft) N-NE 22 0 min 0 W/m 7,1 C 7,9 C 0,0 km/h (0 Bft)
28/11/2011 07:15 7,9 C 95 % 1024,1 hPa 0,0 mm 0,0 km/h (0 Bft) N-NE 22 0 min 0 W/m 7,1 C 7,9 C 0,0 km/h (0 Bft)
28/11/2011 07:20 7,9 C 95 % 1024,2 hPa 0,0 mm 0,0 km/h (0 Bft) N-NE 22 0 min 0 W/m 7,1 C 7,9 C 0,0 km/h (0 Bft)
28/11/2011 07:25 7,8 C 95 % 1024,1 hPa 0,0 mm 0,0 km/h (0 Bft) N-NE 22 0 min 0 W/m 7,0 C 7,8 C 0,0 km/h (0 Bft)
28/11/2011 07:30 7,8 C 95 % 1024,1 hPa 0,0 mm 0,0 km/h (0 Bft) N-NE 22 0 min 0 W/m 7,0 C 7,8 C 0,0 km/h (0 Bft)
28/11/2011 07:35 7,8 C 95 % 1024,1 hPa 0,0 mm 0,0 km/h (0 Bft) N-NE 22 0 min 0 W/m 7,0 C 7,8 C 0,0 km/h (0 Bft)
28/11/2011 07:40 7,8 C 95 % 1024,0 hPa 0,0 mm 0,0 km/h (0 Bft) N-NE 22 0 min 0 W/m 7,0 C 7,8 C 0,0 km/h (0 Bft)
28/11/2011 07:45 7,8 C 95 % 1023,9 hPa 0,0 mm 0,0 km/h (0 Bft) N-NE 22 0 min 0 W/m 7,0 C 7,8 C 0,0 km/h (0 Bft)
28/11/2011 07:50 7,8 C 95 % 1024,0 hPa 0,0 mm 0,0 km/h (0 Bft) N-NE 22 0 min 0 W/m 7,0 C 7,8 C 0,0 km/h (0 Bft)
28/11/2011 07:55 7,8 C 95 % 1023,9 hPa 0,0 mm 0,0 km/h (0 Bft) N-NE 22 0 min 0 W/m 7,0 C 7,8 C 0,0 km/h (0 Bft)
28/11/2011 08:00 7,8 C 95 % 1023,9 hPa 0,0 mm 0,0 km/h (0 Bft) N-NE 22 0 min 0 W/m 7,0 C 7,8 C 0,0 km/h (0 Bft)
28/11/2011 08:05 7,8 C 95 % 1024,0 hPa 0,0 mm 0,0 km/h (0 Bft) N-NE 22 0 min 0 W/m 7,0 C 7,8 C 0,0 km/h (0 Bft)
28/11/2011 08:10 7,8 C 95 % 1024,0 hPa 0,0 mm 0,0 km/h (0 Bft) N-NE 22 0 min 0 W/m 7,0 C 7,8 C 0,0 km/h (0 Bft)
28/11/2011 08:15 7,8 C 95 % 1023,9 hPa 0,0 mm 0,0 km/h (0 Bft) N-NE 22 0 min 0 W/m 7,0 C 7,8 C 0,0 km/h (0 Bft)
28/11/2011 08:20 7,8 C 95 % 1023,9 hPa 0,0 mm 0,0 km/h (0 Bft) N-NE 22 0 min 0 W/m 7,0 C 7,8 C 0,0 km/h (0 Bft)
28/11/2011 08:25 7,8 C 95 % 1024,0 hPa 0,0 mm 0,0 km/h (0 Bft) N-NE 22 0 min 0 W/m 7,0 C 7,8 C 0,0 km/h (0 Bft)
28/11/2011 08:30 7,8 C 95 % 1024,0 hPa 0,0 mm 0,0 km/h (0 Bft) E 90 0 min 0 W/m 7,0 C 7,8 C 0,0 km/h (0 Bft)
28/11/2011 08:35 7,9 C 95 % 1024,0 hPa 0,0 mm 0,4 km/h (0 Bft) E-SE 112 0 min 0 W/m 7,1 C 7,9 C 3,6 km/h (1 Bft)
28/11/2011 08:40 8,0 C 95 % 1023,9 hPa 0,0 mm 0,0 km/h (0 Bft) E-NE 67 0 min 0 W/m 7,2 C 8,0 C 0,0 km/h (0 Bft)
28/11/2011 08:45 8,0 C 95 % 1024,0 hPa 0,0 mm 2,5 km/h (1 Bft) E 90 0 min 0 W/m 7,2 C 8,0 C 7,2 km/h (2 Bft)
28/11/2011 08:50 8,1 C 95 % 1024,0 hPa 0,0 mm 2,2 km/h (1 Bft) E-NE 67 0 min 0 W/m 7,3 C 8,1 C 3,2 km/h (1 Bft)
28/11/2011 08:55 8,2 C 95 % 1024,1 hPa 0,0 mm 0,0 km/h (0 Bft) E-NE 67 0 min 0 W/m 7,4 C 8,2 C 1,4 km/h (1 Bft)
28/11/2011 09:00 8,3 C 95 % 1024,1 hPa 0,0 mm 1,1 km/h (1 Bft) E-NE 67 0 min 0 W/m 7,5 C 8,3 C 3,6 km/h (1 Bft)
28/11/2011 09:05 8,3 C 95 % 1024,0 hPa 0,0 mm 0,0 km/h (0 Bft) E 90 0 min 0 W/m 7,5 C 8,3 C 0,0 km/h (0 Bft)
28/11/2011 09:10 8,5 C 95 % 1024,0 hPa 0,0 mm 0,0 km/h (0 Bft) NE 45 0 min 0 W/m 7,7 C 8,5 C 0,0 km/h (0 Bft)
28/11/2011 09:15 8,6 C 95 % 1024,0 hPa 0,0 mm 0,0 km/h (0 Bft) E-NE 67 0 min 0 W/m 7,8 C 8,6 C 0,0 km/h (0 Bft)
28/11/2011 09:20 8,8 C 95 % 1024,0 hPa 0,0 mm 0,4 km/h (0 Bft) E-NE 67 0 min 0 W/m 8,0 C 8,8 C 4,3 km/h (1 Bft)
28/11/2011 09:25 8,8 C 96 % 1024,0 hPa 0,0 mm 0,0 km/h (0 Bft) NE 45 0 min 0 W/m 8,2 C 8,8 C 0,0 km/h (0 Bft)
28/11/2011 09:30 8,9 C 96 % 1023,9 hPa 0,0 mm 0,0 km/h (0 Bft) E-NE 67 0 min 0 W/m 8,3 C 8,9 C 0,0 km/h (0 Bft)
28/11/2011 09:35 8,9 C 96 % 1023,9 hPa 0,0 mm 0,4 km/h (0 Bft) E-NE 67 0 min 0 W/m 8,3 C 8,9 C 4,3 km/h (1 Bft)
28/11/2011 09:40 9,0 C 96 % 1024,0 hPa 0,0 mm 1,1 km/h (1 Bft) E-NE 67 0 min 0 W/m 8,4 C 9,0 C 10,1 km/h (2 Bft)
28/11/2011 09:45 9,1 C 96 % 1023,9 hPa 0,0 mm 0,7 km/h (0 Bft) NE 45 0 min 0 W/m 8,5 C 9,1 C 0,7 km/h (0 Bft)
28/11/2011 09:50 9,2 C 96 % 1023,9 hPa 0,0 mm 2,5 km/h (1 Bft) E 90 0 min 0 W/m 8,6 C 9,2 C 2,5 km/h (1 Bft)
28/11/2011 09:55 9,4 C 96 % 1023,9 hPa 0,0 mm 3,2 km/h (1 Bft) NE 45 0 min 0 W/m 8,8 C 9,4 C 6,8 km/h (2 Bft)
28/11/2011 10:00 9,6 C 96 % 1024,0 hPa 0,0 mm 4,3 km/h (1 Bft) N-NE 22 0 min 0 W/m 9,0 C 9,6 C 8,6 km/h (2 Bft)
28/11/2011 10:05 9,8 C 95 % 1024,0 hPa 0,0 mm 3,6 km/h (1 Bft) E-NE 67 0 min 0 W/m 9,0 C 9,8 C 7,6 km/h (2 Bft)
28/11/2011 10:10 9,9 C 95 % 1024,0 hPa 0,0 mm 5,4 km/h (2 Bft) E-NE 67 0 min 0 W/m 9,1 C 9,5 C 12,2 km/h (2 Bft)
28/11/2011 10:15 9,9 C 95 % 1023,9 hPa 0,0 mm 2,2 km/h (1 Bft) E-NE 67 0 min 0 W/m 9,1 C 9,9 C 4,3 km/h (1 Bft)
28/11/2011 10:20 10,1 C 94 % 1023,9 hPa 0,0 mm 3,6 km/h (1 Bft) E-NE 67 0 min 0 W/m 9,2 C 10,1 C 8,3 km/h (2 Bft)
28/11/2011 10:25 10,0 C 94 % 1023,8 hPa 0,0 mm 1,1 km/h (1 Bft) E 90 0 min 0 W/m 9,1 C 10,0 C 6,5 km/h (2 Bft)
28/11/2011 10:30 10,1 C 93 % 1023,7 hPa 0,0 mm 4,3 km/h (1 Bft) E-SE 112 0 min 0 W/m 9,0 C 10,1 C 6,5 km/h (2 Bft)
28/11/2011 10:35 10,4 C 93 % 1023,7 hPa 0,0 mm 5,4 km/h (2 Bft) E 90 0 min 0 W/m 9,3 C 10,4 C 5,4 km/h (2 Bft)
28/11/2011 10:40 11,1 C 90 % 1023,8 hPa 0,0 mm 2,5 km/h (1 Bft) E-NE 67 0 min 0 W/m 9,5 C 11,1 C 4,0 km/h (1 Bft)
28/11/2011 10:45 11,5 C 88 % 1023,9 hPa 0,0 mm 3,6 km/h (1 Bft) E 90 0 min 0 W/m 9,6 C 11,5 C 8,6 km/h (2 Bft)
28/11/2011 10:50 11,8 C 85 % 1024,3 hPa 0,0 mm 1,4 km/h (1 Bft) E 90 0 min 0 W/m 9,4 C 11,8 C 4,0 km/h (1 Bft)
28/11/2011 10:55 12,3 C 85 % 1024,3 hPa 0,0 mm 5,0 km/h (1 Bft) E-NE 67 0 min 0 W/m 9,9 C 12,3 C 10,8 km/h (2 Bft)
28/11/2011 11:00 12,5 C 82 % 1024,3 hPa 0,0 mm 3,6 km/h (1 Bft) N-NE 22 0 min 0 W/m 9,5 C 12,5 C 6,1 km/h (2 Bft)
28/11/2011 11:05 12,9 C 81 % 1024,4 hPa 0,0 mm 2,9 km/h (1 Bft) E-NE 67 0 min 0 W/m 9,7 C 12,9 C 7,2 km/h (2 Bft)
28/11/2011 11:10 13,2 C 79 % 1024,4 hPa 0,0 mm 3,2 km/h (1 Bft) E-SE 112 0 min 0 W/m 9,6 C 13,2 C 4,3 km/h (1 Bft)
28/11/2011 11:15 13,4 C 79 % 1024,3 hPa 0,0 mm 6,5 km/h (2 Bft) SE 135 0 min 0 W/m 9,8 C 13,4 C 12,2 km/h (2 Bft)
28/11/2011 11:20 13,6 C 77 % 1024,3 hPa 0,0 mm 6,1 km/h (2 Bft) E 90 0 min 0 W/m 9,6 C 13,6 C 7,6 km/h (2 Bft)
28/11/2011 11:25 13,6 C 75 % 1024,2 hPa 0,0 mm 3,2 km/h (1 Bft) E-SE 112 0 min 0 W/m 9,3 C 13,6 C 9,4 km/h (2 Bft)
28/11/2011 11:30 13,8 C 74 % 1024,3 hPa 0,0 mm 5,4 km/h (2 Bft) E-SE 112 0 min 0 W/m 9,2 C 13,8 C 8,6 km/h (2 Bft)
28/11/2011 11:35 13,7 C 73 % 1024,3 hPa 0,0 mm 3,2 km/h (1 Bft) E-SE 112 0 min 0 W/m 8,9 C 13,7 C 8,3 km/h (2 Bft)
28/11/2011 11:40 13,5 C 74 % 1024,2 hPa 0,0 mm 4,3 km/h (1 Bft) S-SE 157 0 min 0 W/m 9,0 C 13,5 C 7,6 km/h (2 Bft)
28/11/2011 11:45 13,5 C 74 % 1024,1 hPa 0,0 mm 5,8 km/h (2 Bft) NE 45 0 min 0 W/m 9,0 C 13,5 C 7,2 km/h (2 Bft)
28/11/2011 11:50 13,6 C 74 % 1024,1 hPa 0,0 mm 1,1 km/h (1 Bft) E-SE 112 0 min 0 W/m 9,1 C 13,6 C 3,2 km/h (1 Bft)
28/11/2011 11:55 13,6 C 73 % 1024,1 hPa 0,0 mm 1,4 km/h (1 Bft) E-SE 112 0 min 0 W/m 8,9 C 13,6 C 4,3 km/h (1 Bft)
28/11/2011 12:00 13,8 C 73 % 1024,1 hPa 0,0 mm 0,0 km/h (0 Bft) NE 45 0 min 0 W/m 9,0 C 13,8 C 0,0 km/h (0 Bft)
28/11/2011 12:05 14,1 C 73 % 1024,1 hPa 0,0 mm 4,3 km/h (1 Bft) N-NE 22 0 min 0 W/m 9,3 C 14,1 C 4,3 km/h (1 Bft)
28/11/2011 12:10 14,3 C 72 % 1024,1 hPa 0,0 mm 1,1 km/h (1 Bft) E-NE 67 0 min 0 W/m 9,3 C 14,3 C 2,9 km/h (1 Bft)
28/11/2011 12:15 14,4 C 72 % 1024,0 hPa 0,0 mm 5,0 km/h (1 Bft) E 90 0 min 0 W/m 9,4 C 14,4 C 7,2 km/h (2 Bft)
28/11/2011 12:20 14,4 C 72 % 1024,1 hPa 0,0 mm 2,5 km/h (1 Bft) E 90 0 min 0 W/m 9,4 C 14,4 C 6,1 km/h (2 Bft)
28/11/2011 12:25 14,6 C 71 % 1024,0 hPa 0,0 mm 2,9 km/h (1 Bft) E-NE 67 0 min 0 W/m 9,4 C 14,6 C 4,3 km/h (1 Bft)
28/11/2011 12:30 14,8 C 71 % 1024,0 hPa 0,0 mm 4,0 km/h (1 Bft) NE 45 0 min 0 W/m 9,6 C 14,8 C 4,3 km/h (1 Bft)
28/11/2011 12:35 14,7 C 70 % 1023,9 hPa 0,0 mm 2,2 km/h (1 Bft) N-NE 22 0 min 0 W/m 9,3 C 14,7 C 4,0 km/h (1 Bft)
28/11/2011 12:40 14,8 C 70 % 1023,9 hPa 0,0 mm 0,7 km/h (0 Bft) E-NE 67 0 min 0 W/m 9,4 C 14,8 C 3,6 km/h (1 Bft)
28/11/2011 12:45 14,9 C 70 % 1023,9 hPa 0,0 mm 2,2 km/h (1 Bft) E-NE 67 0 min 0 W/m 9,5 C 14,9 C 2,9 km/h (1 Bft)
28/11/2011 12:50 15,0 C 70 % 1023,8 hPa 0,0 mm 0,4 km/h (0 Bft) NE 45 0 min 0 W/m 9,6 C 15,0 C 3,2 km/h (1 Bft)
28/11/2011 12:55 15,1 C 69 % 1023,7 hPa 0,0 mm 0,0 km/h (0 Bft) NE 45 0 min 0 W/m 9,5 C 15,1 C 0,0 km/h (0 Bft)
28/11/2011 13:00 15,2 C 69 % 1023,5 hPa 0,0 mm 0,4 km/h (0 Bft) E-NE 67 0 min 0 W/m 9,6 C 15,2 C 3,2 km/h (1 Bft)
28/11/2011 13:05 15,1 C 69 % 1023,5 hPa 0,0 mm 0,0 km/h (0 Bft) E-NE 67 0 min 0 W/m 9,5 C 15,1 C 0,0 km/h (0 Bft)
28/11/2011 13:10 15,0 C 69 % 1023,4 hPa 0,0 mm 0,0 km/h (0 Bft) E-NE 67 0 min 0 W/m 9,4 C 15,0 C 0,0 km/h (0 Bft)
28/11/2011 13:15 15,2 C 69 % 1023,4 hPa 0,0 mm 0,0 km/h (0 Bft) N 360 0 min 0 W/m 9,6 C 15,2 C 0,0 km/h (0 Bft)
28/11/2011 13:20 15,4 C 68 % 1023,4 hPa 0,0 mm 1,8 km/h (1 Bft) NE 45 0 min 0 W/m 9,5 C 15,4 C 1,8 km/h (1 Bft)
28/11/2011 13:25 15,6 C 68 % 1023,4 hPa 0,0 mm 0,0 km/h (0 Bft) NE 45 0 min 0 W/m 9,7 C 15,6 C 0,0 km/h (0 Bft)
28/11/2011 13:30 15,8 C 67 % 1023,3 hPa 0,0 mm 0,4 km/h (0 Bft) NE 45 0 min 0 W/m 9,7 C 15,8 C 2,9 km/h (1 Bft)
28/11/2011 13:35 15,8 C 68 % 1023,3 hPa 0,0 mm 1,4 km/h (1 Bft) NE 45 0 min 0 W/m 9,9 C 15,8 C 4,3 km/h (1 Bft)
28/11/2011 13:40 15,7 C 67 % 1023,3 hPa 0,0 mm 0,4 km/h (0 Bft) E 90 0 min 0 W/m 9,6 C 15,7 C 0,4 km/h (0 Bft)
28/11/2011 13:45 15,6 C 66 % 1023,3 hPa 0,0 mm 0,0 km/h (0 Bft) E-NE 67 0 min 0 W/m 9,3 C 15,6 C 0,0 km/h (0 Bft)
28/11/2011 13:50 15,8 C 66 % 1023,3 hPa 0,0 mm 0,0 km/h (0 Bft) E-NE 67 0 min 0 W/m 9,5 C 15,8 C 3,2 km/h (1 Bft)
28/11/2011 13:55 15,8 C 65 % 1023,3 hPa 0,0 mm 0,0 km/h (0 Bft) E-NE 67 0 min 0 W/m 9,2 C 15,8 C 0,0 km/h (0 Bft)
28/11/2011 14:00 15,8 C 66 % 1023,3 hPa 0,0 mm 0,0 km/h (0 Bft) NE 45 0 min 0 W/m 9,5 C 15,8 C 2,9 km/h (1 Bft)
28/11/2011 14:05 15,8 C 66 % 1023,1 hPa 0,0 mm 0,0 km/h (0 Bft) NE 45 0 min 0 W/m 9,5 C 15,8 C 0,0 km/h (0 Bft)
28/11/2011 14:10 15,9 C 65 % 1022,9 hPa 0,0 mm 0,4 km/h (0 Bft) NE 45 0 min 0 W/m 9,3 C 15,9 C 3,2 km/h (1 Bft)
28/11/2011 14:15 15,8 C 66 % 1022,7 hPa 0,0 mm 0,0 km/h (0 Bft) NE 45 0 min 0 W/m 9,5 C 15,8 C 0,0 km/h (0 Bft)
28/11/2011 14:20 15,9 C 66 % 1022,6 hPa 0,0 mm 1,4 km/h (1 Bft) NE 45 0 min 0 W/m 9,6 C 15,9 C 3,6 km/h (1 Bft)
28/11/2011 14:25 15,7 C 66 % 1022,5 hPa 0,0 mm 1,1 km/h (1 Bft) NE 45 0 min 0 W/m 9,4 C 15,7 C 4,3 km/h (1 Bft)
28/11/2011 14:30 15,6 C 66 % 1022,4 hPa 0,0 mm 0,0 km/h (0 Bft) NE 45 0 min 0 W/m 9,3 C 15,6 C 0,0 km/h (0 Bft)
28/11/2011 14:35 15,4 C 67 % 1022,4 hPa 0,0 mm 0,0 km/h (0 Bft) NE 45 0 min 0 W/m 9,3 C 15,4 C 0,0 km/h (0 Bft)
28/11/2011 14:40 15,4 C 66 % 1022,3 hPa 0,0 mm 3,6 km/h (1 Bft) N-NE 22 0 min 0 W/m 9,1 C 15,4 C 6,5 km/h (2 Bft)
28/11/2011 14:45 15,3 C 67 % 1022,3 hPa 0,0 mm 0,0 km/h (0 Bft) N-NE 22 0 min 0 W/m 9,2 C 15,3 C 0,0 km/h (0 Bft)
28/11/2011 14:50 15,1 C 67 % 1022,3 hPa 0,0 mm 0,0 km/h (0 Bft) N-NE 22 0 min 0 W/m 9,0 C 15,1 C 0,0 km/h (0 Bft)
28/11/2011 14:55 14,9 C 67 % 1022,2 hPa 0,0 mm 0,4 km/h (0 Bft) N-NE 22 0 min 0 W/m 8,8 C 14,9 C 0,4 km/h (0 Bft)
28/11/2011 15:00 14,6 C 67 % 1022,2 hPa 0,0 mm 0,0 km/h (0 Bft) N-NE 22 0 min 0 W/m 8,5 C 14,6 C 3,2 km/h (1 Bft)
28/11/2011 15:05 14,4 C 68 % 1022,1 hPa 0,0 mm 0,0 km/h (0 Bft) N-NE 22 0 min 0 W/m 8,6 C 14,4 C 0,0 km/h (0 Bft)
28/11/2011 15:10 14,3 C 69 % 1022,1 hPa 0,0 mm 0,7 km/h (0 Bft) N-NE 22 0 min 0 W/m 8,7 C 14,3 C 4,0 km/h (1 Bft)
28/11/2011 15:15 14,1 C 69 % 1022,0 hPa 0,0 mm 0,4 km/h (0 Bft) E-NE 67 0 min 0 W/m 8,5 C 14,1 C 0,4 km/h (0 Bft)
28/11/2011 15:20 14,1 C 69 % 1022,0 hPa 0,0 mm 0,7 km/h (0 Bft) N-NE 22 0 min 0 W/m 8,5 C 14,1 C 0,7 km/h (0 Bft)
28/11/2011 15:25 14,0 C 69 % 1022,0 hPa 0,0 mm 3,2 km/h (1 Bft) N-NE 22 0 min 0 W/m 8,4 C 14,0 C 3,2 km/h (1 Bft)
28/11/2011 15:30 13,9 C 69 % 1022,0 hPa 0,0 mm 0,0 km/h (0 Bft) N 360 0 min 0 W/m 8,3 C 13,9 C 0,0 km/h (0 Bft)
28/11/2011 15:35 13,8 C 69 % 1021,9 hPa 0,0 mm 0,0 km/h (0 Bft) N-NE 22 0 min 0 W/m 8,2 C 13,8 C 0,0 km/h (0 Bft)
28/11/2011 15:40 13,8 C 69 % 1021,8 hPa 0,0 mm 0,0 km/h (0 Bft) N-NE 22 0 min 0 W/m 8,2 C 13,8 C 0,0 km/h (0 Bft)
28/11/2011 15:45 13,6 C 70 % 1021,8 hPa 0,0 mm 0,0 km/h (0 Bft) N-NE 22 0 min 0 W/m 8,2 C 13,6 C 1,4 km/h (1 Bft)
28/11/2011 15:50 13,5 C 70 % 1021,7 hPa 0,0 mm 1,1 km/h (1 Bft) N-NE 22 0 min 0 W/m 8,1 C 13,5 C 4,0 km/h (1 Bft)
28/11/2011 15:55 13,4 C 70 % 1021,8 hPa 0,0 mm 0,0 km/h (0 Bft) N-NE 22 0 min 0 W/m 8,0 C 13,4 C 0,0 km/h (0 Bft)
28/11/2011 16:00 13,2 C 71 % 1021,8 hPa 0,0 mm 0,0 km/h (0 Bft) N-NE 22 0 min 0 W/m 8,1 C 13,2 C 0,0 km/h (0 Bft)
28/11/2011 16:05 13,0 C 71 % 1021,7 hPa 0,0 mm 0,0 km/h (0 Bft) N-NE 22 0 min 0 W/m 7,9 C 13,0 C 0,0 km/h (0 Bft)
28/11/2011 16:10 12,8 C 72 % 1021,8 hPa 0,0 mm 0,0 km/h (0 Bft) N-NE 22 0 min 0 W/m 7,9 C 12,8 C 0,0 km/h (0 Bft)
28/11/2011 16:15 12,6 C 72 % 1021,8 hPa 0,0 mm 0,0 km/h (0 Bft) N-NE 22 0 min 0 W/m 7,7 C 12,6 C 0,0 km/h (0 Bft)
28/11/2011 16:20 12,4 C 73 % 1021,7 hPa 0,0 mm 0,0 km/h (0 Bft) N-NE 22 0 min 0 W/m 7,7 C 12,4 C 0,0 km/h (0 Bft)
28/11/2011 16:25 12,2 C 73 % 1021,8 hPa 0,0 mm 0,0 km/h (0 Bft) N-NE 22 0 min 0 W/m 7,5 C 12,2 C 0,0 km/h (0 Bft)
28/11/2011 16:30 12,0 C 73 % 1021,7 hPa 0,0 mm 0,0 km/h (0 Bft) N-NE 22 0 min 0 W/m 7,3 C 12,0 C 0,0 km/h (0 Bft)
28/11/2011 16:35 11,8 C 74 % 1021,7 hPa 0,0 mm 0,0 km/h (0 Bft) N-NE 22 0 min 0 W/m 7,3 C 11,8 C 0,0 km/h (0 Bft)
28/11/2011 16:40 11,7 C 74 % 1021,6 hPa 0,0 mm 0,0 km/h (0 Bft) N-NE 22 0 min 0 W/m 7,2 C 11,7 C 0,0 km/h (0 Bft)
28/11/2011 16:45 11,5 C 75 % 1021,5 hPa 0,0 mm 0,0 km/h (0 Bft) N-NE 22 0 min 0 W/m 7,2 C 11,5 C 0,0 km/h (0 Bft)
28/11/2011 16:50 11,4 C 75 % 1021,5 hPa 0,0 mm 0,0 km/h (0 Bft) N-NE 22 0 min 0 W/m 7,1 C 11,4 C 0,0 km/h (0 Bft)
28/11/2011 16:55 11,3 C 76 % 1021,4 hPa 0,0 mm 0,0 km/h (0 Bft) N-NE 22 0 min 0 W/m 7,2 C 11,3 C 0,0 km/h (0 Bft)
28/11/2011 17:00 11,1 C 76 % 1021,4 hPa 0,0 mm 0,0 km/h (0 Bft) N-NE 22 0 min 0 W/m 7,0 C 11,1 C 0,0 km/h (0 Bft)
28/11/2011 17:05 10,9 C 76 % 1021,5 hPa 0,0 mm 0,0 km/h (0 Bft) N-NE 22 0 min 0 W/m 6,8 C 10,9 C 0,0 km/h (0 Bft)
28/11/2011 17:10 10,8 C 76 % 1021,4 hPa 0,0 mm 0,0 km/h (0 Bft) N-NE 22 0 min 0 W/m 6,7 C 10,8 C 0,0 km/h (0 Bft)
28/11/2011 17:15 10,6 C 76 % 1021,3 hPa 0,0 mm 0,0 km/h (0 Bft) N-NE 22 0 min 0 W/m 6,5 C 10,6 C 0,0 km/h (0 Bft)
28/11/2011 17:20 10,4 C 77 % 1021,4 hPa 0,0 mm 0,0 km/h (0 Bft) N-NE 22 0 min 0 W/m 6,5 C 10,4 C 0,0 km/h (0 Bft)
28/11/2011 17:25 10,2 C 77 % 1021,3 hPa 0,0 mm 0,0 km/h (0 Bft) N-NE 22 0 min 0 W/m 6,4 C 10,2 C 0,0 km/h (0 Bft)
28/11/2011 17:30 10,0 C 78 % 1021,3 hPa 0,0 mm 0,0 km/h (0 Bft) N-NE 22 0 min 0 W/m 6,3 C 10,0 C 0,0 km/h (0 Bft)
28/11/2011 17:35 9,8 C 78 % 1021,3 hPa 0,0 mm 0,0 km/h (0 Bft) N-NE 22 0 min 0 W/m 6,1 C 9,8 C 0,0 km/h (0 Bft)
28/11/2011 17:40 9,6 C 78 % 1021,3 hPa 0,0 mm 0,0 km/h (0 Bft) N-NE 22 0 min 0 W/m 6,0 C 9,6 C 0,0 km/h (0 Bft)
28/11/2011 17:45 9,4 C 79 % 1021,3 hPa 0,0 mm 0,0 km/h (0 Bft) N-NE 22 0 min 0 W/m 5,9 C 9,4 C 0,0 km/h (0 Bft)
28/11/2011 17:50 9,2 C 79 % 1021,3 hPa 0,0 mm 0,0 km/h (0 Bft) N-NE 22 0 min 0 W/m 5,8 C 9,2 C 0,0 km/h (0 Bft)
28/11/2011 17:55 9,1 C 80 % 1021,3 hPa 0,0 mm 0,0 km/h (0 Bft) N-NE 22 0 min 0 W/m 5,8 C 9,1 C 0,0 km/h (0 Bft)
28/11/2011 18:00 8,9 C 80 % 1021,3 hPa 0,0 mm 0,0 km/h (0 Bft) N-NE 22 0 min 0 W/m 5,6 C 8,9 C 0,0 km/h (0 Bft)
28/11/2011 18:05 8,7 C 81 % 1021,3 hPa 0,0 mm 0,0 km/h (0 Bft) N-NE 22 0 min 0 W/m 5,6 C 8,7 C 0,0 km/h (0 Bft)
28/11/2011 18:10 8,6 C 82 % 1021,3 hPa 0,0 mm 0,0 km/h (0 Bft) N-NO 337 0 min 0 W/m 5,7 C 8,6 C 0,0 km/h (0 Bft)
28/11/2011 18:15 8,3 C 83 % 1021,4 hPa 0,0 mm 0,4 km/h (0 Bft) SO 225 0 min 0 W/m 5,6 C 8,3 C 0,4 km/h (0 Bft)
28/11/2011 18:20 8,2 C 84 % 1021,4 hPa 0,0 mm 0,0 km/h (0 Bft) O-SO 247 0 min 0 W/m 5,7 C 8,2 C 3,6 km/h (1 Bft)
28/11/2011 18:25 8,1 C 85 % 1021,4 hPa 0,0 mm 0,0 km/h (0 Bft) SO 225 0 min 0 W/m 5,7 C 8,1 C 0,0 km/h (0 Bft)
28/11/2011 18:30 8,0 C 85 % 1021,4 hPa 0,0 mm 0,0 km/h (0 Bft) SO 225 0 min 0 W/m 5,6 C 8,0 C 0,0 km/h (0 Bft)
28/11/2011 18:35 7,9 C 86 % 1021,4 hPa 0,0 mm 0,0 km/h (0 Bft) O-SO 247 0 min 0 W/m 5,7 C 7,9 C 0,0 km/h (0 Bft)
28/11/2011 18:40 7,8 C 86 % 1021,3 hPa 0,0 mm 0,0 km/h (0 Bft) O-SO 247 0 min 0 W/m 5,6 C 7,8 C 0,0 km/h (0 Bft)
28/11/2011 18:45 7,8 C 87 % 1021,4 hPa 0,0 mm 0,0 km/h (0 Bft) SO 225 0 min 0 W/m 5,8 C 7,8 C 0,0 km/h (0 Bft)
28/11/2011 18:50 7,8 C 87 % 1021,4 hPa 0,0 mm 0,0 km/h (0 Bft) SO 225 0 min 0 W/m 5,8 C 7,8 C 0,0 km/h (0 Bft)
28/11/2011 18:55 7,6 C 87 % 1021,4 hPa 0,0 mm 0,0 km/h (0 Bft) SO 225 0 min 0 W/m 5,6 C 7,6 C 0,0 km/h (0 Bft)
28/11/2011 19:00 7,6 C 87 % 1021,5 hPa 0,0 mm 0,0 km/h (0 Bft) SO 225 0 min 0 W/m 5,6 C 7,6 C 0,0 km/h (0 Bft)
28/11/2011 19:05 7,5 C 88 % 1021,4 hPa 0,0 mm 0,0 km/h (0 Bft) SO 225 0 min 0 W/m 5,6 C 7,5 C 0,0 km/h (0 Bft)
28/11/2011 19:10 7,4 C 88 % 1021,4 hPa 0,0 mm 0,0 km/h (0 Bft) O-SO 247 0 min 0 W/m 5,5 C 7,4 C 0,0 km/h (0 Bft)
28/11/2011 19:15 7,4 C 88 % 1021,4 hPa 0,0 mm 0,0 km/h (0 Bft) SO 225 0 min 0 W/m 5,5 C 7,4 C 0,0 km/h (0 Bft)
28/11/2011 19:20 7,3 C 88 % 1021,5 hPa 0,0 mm 0,0 km/h (0 Bft) O-SO 247 0 min 0 W/m 5,4 C 7,3 C 0,0 km/h (0 Bft)
28/11/2011 19:25 7,2 C 89 % 1021,5 hPa 0,0 mm 0,0 km/h (0 Bft) O-SO 247 0 min 0 W/m 5,5 C 7,2 C 0,0 km/h (0 Bft)
28/11/2011 19:30 7,1 C 88 % 1021,5 hPa 0,0 mm 0,0 km/h (0 Bft) O-SO 247 0 min 0 W/m 5,2 C 7,1 C 0,0 km/h (0 Bft)
28/11/2011 19:35 7,1 C 88 % 1021,6 hPa 0,0 mm 0,0 km/h (0 Bft) O-SO 247 0 min 0 W/m 5,2 C 7,1 C 0,0 km/h (0 Bft)
28/11/2011 19:40 6,9 C 88 % 1021,5 hPa 0,0 mm 0,0 km/h (0 Bft) O-SO 247 0 min 0 W/m 5,1 C 6,9 C 0,0 km/h (0 Bft)
28/11/2011 19:45 6,8 C 88 % 1021,6 hPa 0,0 mm 0,0 km/h (0 Bft) O-SO 247 0 min 0 W/m 5,0 C 6,8 C 0,0 km/h (0 Bft)
28/11/2011 19:50 6,8 C 89 % 1021,6 hPa 0,0 mm 0,0 km/h (0 Bft) O 270 0 min 0 W/m 5,1 C 6,8 C 0,0 km/h (0 Bft)
28/11/2011 19:55 6,6 C 89 % 1021,6 hPa 0,0 mm 0,0 km/h (0 Bft) SO 225 0 min 0 W/m 4,9 C 6,6 C 0,0 km/h (0 Bft)
28/11/2011 20:00 6,6 C 89 % 1021,7 hPa 0,0 mm 0,0 km/h (0 Bft) O-SO 247 0 min 0 W/m 4,9 C 6,6 C 0,0 km/h (0 Bft)
28/11/2011 20:05 6,4 C 89 % 1021,8 hPa 0,0 mm 0,0 km/h (0 Bft) SO 225 0 min 0 W/m 4,7 C 6,4 C 0,0 km/h (0 Bft)
28/11/2011 20:10 6,3 C 89 % 1021,9 hPa 0,0 mm 0,0 km/h (0 Bft) SO 225 0 min 0 W/m 4,6 C 6,3 C 0,0 km/h (0 Bft)
28/11/2011 20:15 6,3 C 89 % 1021,8 hPa 0,0 mm 0,0 km/h (0 Bft) SO 225 0 min 0 W/m 4,6 C 6,3 C 0,0 km/h (0 Bft)
28/11/2011 20:20 6,1 C 90 % 1021,8 hPa 0,0 mm 0,0 km/h (0 Bft) SO 225 0 min 0 W/m 4,6 C 6,1 C 0,0 km/h (0 Bft)
28/11/2011 20:25 6,0 C 90 % 1021,7 hPa 0,0 mm 0,0 km/h (0 Bft) SO 225 0 min 0 W/m 4,5 C 6,0 C 0,0 km/h (0 Bft)
28/11/2011 20:30 5,9 C 90 % 1021,7 hPa 0,0 mm 0,0 km/h (0 Bft) SO 225 0 min 0 W/m 4,4 C 5,9 C 0,0 km/h (0 Bft)
28/11/2011 20:35 5,8 C 90 % 1021,6 hPa 0,0 mm 0,0 km/h (0 Bft) SO 225 0 min 0 W/m 4,3 C 5,8 C 0,0 km/h (0 Bft)
28/11/2011 20:40 5,6 C 90 % 1021,6 hPa 0,0 mm 0,0 km/h (0 Bft) SO 225 0 min 0 W/m 4,1 C 5,6 C 0,0 km/h (0 Bft)
28/11/2011 20:45 5,5 C 90 % 1021,5 hPa 0,0 mm 0,0 km/h (0 Bft) O-SO 247 0 min 0 W/m 4,0 C 5,5 C 0,0 km/h (0 Bft)
28/11/2011 20:50 5,4 C 90 % 1021,5 hPa 0,0 mm 0,0 km/h (0 Bft) SO 225 0 min 0 W/m 3,9 C 5,4 C 0,0 km/h (0 Bft)
28/11/2011 20:55 5,3 C 90 % 1021,4 hPa 0,0 mm 0,0 km/h (0 Bft) SO 225 0 min 0 W/m 3,8 C 5,3 C 0,0 km/h (0 Bft)
28/11/2011 21:00 5,3 C 90 % 1021,3 hPa 0,0 mm 0,0 km/h (0 Bft) SO 225 0 min 0 W/m 3,8 C 5,3 C 0,0 km/h (0 Bft)
28/11/2011 21:05 5,2 C 90 % 1021,3 hPa 0,0 mm 0,0 km/h (0 Bft) SO 225 0 min 0 W/m 3,7 C 5,2 C 0,0 km/h (0 Bft)
28/11/2011 21:10 5,1 C 90 % 1021,2 hPa 0,0 mm 0,0 km/h (0 Bft) SO 225 0 min 0 W/m 3,6 C 5,1 C 0,0 km/h (0 Bft)
28/11/2011 21:15 4,9 C 90 % 1021,2 hPa 0,0 mm 0,0 km/h (0 Bft) SO 225 0 min 0 W/m 3,4 C 4,9 C 0,0 km/h (0 Bft)
28/11/2011 21:20 4,8 C 90 % 1021,1 hPa 0,0 mm 0,0 km/h (0 Bft) SO 225 0 min 0 W/m 3,3 C 4,8 C 0,0 km/h (0 Bft)
28/11/2011 21:25 4,7 C 90 % 1021,0 hPa 0,0 mm 0,0 km/h (0 Bft) SO 225 0 min 0 W/m 3,2 C 4,7 C 0,0 km/h (0 Bft)
28/11/2011 21:30 4,6 C 91 % 1021,0 hPa 0,0 mm 0,0 km/h (0 Bft) SO 225 0 min 0 W/m 3,3 C 4,6 C 0,0 km/h (0 Bft)
28/11/2011 21:35 4,5 C 91 % 1021,1 hPa 0,0 mm 0,0 km/h (0 Bft) SO 225 0 min 0 W/m 3,2 C 4,5 C 0,0 km/h (0 Bft)
28/11/2011 21:40 4,5 C 91 % 1020,9 hPa 0,0 mm 1,1 km/h (1 Bft) SE 135 0 min 0 W/m 3,2 C 4,5 C 3,6 km/h (1 Bft)
28/11/2011 21:45 4,6 C 91 % 1020,9 hPa 0,0 mm 0,0 km/h (0 Bft) SE 135 0 min 0 W/m 3,3 C 4,6 C 0,0 km/h (0 Bft)
28/11/2011 21:50 4,8 C 91 % 1020,7 hPa 0,0 mm 1,4 km/h (1 Bft) SE 135 0 min 0 W/m 3,5 C 4,8 C 3,2 km/h (1 Bft)
28/11/2011 21:55 4,8 C 91 % 1020,7 hPa 0,0 mm 0,0 km/h (0 Bft) S-SE 157 0 min 0 W/m 3,5 C 4,8 C 0,0 km/h (0 Bft)
28/11/2011 22:00 4,9 C 91 % 1020,7 hPa 0,0 mm 1,1 km/h (1 Bft) S-SE 157 0 min 0 W/m 3,6 C 4,9 C 3,6 km/h (1 Bft)
28/11/2011 22:05 4,9 C 92 % 1020,8 hPa 0,0 mm 0,0 km/h (0 Bft) S 180 0 min 0 W/m 3,7 C 4,9 C 0,0 km/h (0 Bft)
28/11/2011 22:10 4,8 C 92 % 1020,8 hPa 0,0 mm 0,0 km/h (0 Bft) S-SE 157 0 min 0 W/m 3,6 C 4,8 C 0,0 km/h (0 Bft)
28/11/2011 22:15 4,8 C 92 % 1020,7 hPa 0,0 mm 0,0 km/h (0 Bft) S 180 0 min 0 W/m 3,6 C 4,8 C 0,0 km/h (0 Bft)
28/11/2011 22:20 4,8 C 92 % 1020,7 hPa 0,0 mm 0,0 km/h (0 Bft) S-SO 202 0 min 0 W/m 3,6 C 4,8 C 0,0 km/h (0 Bft)
28/11/2011 22:25 4,6 C 92 % 1020,7 hPa 0,0 mm 0,0 km/h (0 Bft) SO 225 0 min 0 W/m 3,4 C 4,6 C 0,0 km/h (0 Bft)
28/11/2011 22:30 4,4 C 91 % 1020,7 hPa 0,0 mm 0,0 km/h (0 Bft) SO 225 0 min 0 W/m 3,1 C 4,4 C 0,0 km/h (0 Bft)
28/11/2011 22:35 4,3 C 91 % 1020,8 hPa 0,0 mm 0,0 km/h (0 Bft) SO 225 0 min 0 W/m 3,0 C 4,3 C 0,0 km/h (0 Bft)
28/11/2011 22:40 4,1 C 91 % 1020,9 hPa 0,0 mm 0,0 km/h (0 Bft) SO 225 0 min 0 W/m 2,8 C 4,1 C 0,0 km/h (0 Bft)
28/11/2011 22:45 4,0 C 91 % 1020,8 hPa 0,0 mm 0,0 km/h (0 Bft) SO 225 0 min 0 W/m 2,7 C 4,0 C 0,0 km/h (0 Bft)
28/11/2011 22:50 3,9 C 91 % 1020,8 hPa 0,0 mm 0,0 km/h (0 Bft) SO 225 0 min 0 W/m 2,6 C 3,9 C 0,0 km/h (0 Bft)
28/11/2011 22:55 3,8 C 92 % 1020,7 hPa 0,0 mm 0,0 km/h (0 Bft) S-SO 202 0 min 0 W/m 2,6 C 3,8 C 0,0 km/h (0 Bft)
28/11/2011 23:00 3,7 C 92 % 1020,7 hPa 0,0 mm 0,0 km/h (0 Bft) SO 225 0 min 0 W/m 2,5 C 3,7 C 0,0 km/h (0 Bft)
28/11/2011 23:05 3,6 C 92 % 1020,7 hPa 0,0 mm 0,0 km/h (0 Bft) SO 225 0 min 0 W/m 2,4 C 3,6 C 0,0 km/h (0 Bft)
28/11/2011 23:10 3,6 C 92 % 1020,7 hPa 0,0 mm 0,0 km/h (0 Bft) S-SO 202 0 min 0 W/m 2,4 C 3,6 C 0,0 km/h (0 Bft)
28/11/2011 23:15 3,6 C 93 % 1020,7 hPa 0,0 mm 0,0 km/h (0 Bft) S-SO 202 0 min 0 W/m 2,6 C 3,6 C 0,0 km/h (0 Bft)
28/11/2011 23:20 3,6 C 93 % 1020,7 hPa 0,0 mm 0,0 km/h (0 Bft) S-SO 202 0 min 0 W/m 2,6 C 3,6 C 0,0 km/h (0 Bft)
28/11/2011 23:25 3,5 C 93 % 1020,7 hPa 0,0 mm 0,0 km/h (0 Bft) S-SO 202 0 min 0 W/m 2,5 C 3,5 C 0,0 km/h (0 Bft)
28/11/2011 23:30 3,5 C 93 % 1020,7 hPa 0,0 mm 0,0 km/h (0 Bft) S 180 0 min 0 W/m 2,5 C 3,5 C 0,0 km/h (0 Bft)
28/11/2011 23:35 3,5 C 93 % 1020,7 hPa 0,0 mm 0,0 km/h (0 Bft) S 180 0 min 0 W/m 2,5 C 3,5 C 0,0 km/h (0 Bft)
28/11/2011 23:40 3,4 C 93 % 1020,7 hPa 0,0 mm 0,0 km/h (0 Bft) S 180 0 min 0 W/m 2,4 C 3,4 C 0,0 km/h (0 Bft)
28/11/2011 23:45 3,4 C 93 % 1020,6 hPa 0,0 mm 0,0 km/h (0 Bft) S 180 0 min 0 W/m 2,4 C 3,4 C 1,4 km/h (1 Bft)
28/11/2011 23:50 3,3 C 93 % 1020,5 hPa 0,0 mm 0,7 km/h (0 Bft) S-SE 157 0 min 0 W/m 2,3 C 3,3 C 0,7 km/h (0 Bft)
28/11/2011 23:55 3,4 C 93 % 1020,6 hPa 0,0 mm 1,4 km/h (1 Bft) S 180 0 min 0 W/m 2,4 C 3,4 C 1,4 km/h (1 Bft)
_ Min-Heure 23:50 14:10 23:50 - 23:45 - - - - 23:50 23:50 23:40
Minimum _ 3,3 C 65 % 1020,5 hPa - 0,0 km/h (0 Bft) - - - - 2,3 C 3,3 C 0,0 km/h (0 Bft)
_ Max-Heure 14:20 10:00 00:20 23:55 11:15 - - 23:55 23:55 13:35 14:20 11:15
Maximum _ 15,9 C 96 % 1026,6 hPa 0,0 mm 6,5 km/h
SE (2 Bft)
- - 0 min 0 W/m 9,9 C 15,9 C 12,2 km/h
SE (2 Bft)
Moyenne _ 9,3 C 87 % 1023,3 hPa #0,0 mm 0,5 km/h (0 Bft) N-NE - #0 min. 0 W/m 7,0 C 9,3 C 1,3 km/h (1 Bft)
Saint Bonnet de Bellac- Haute Vienne - France